Home > Weather > Haarlem > Past weeks

Flag for Netherlands Weather for the Past 2 Weeks in Haarlem, Netherlands

Now
48 °F

Sprinkles. Partly sunny.


Feels Like: 40 °F
Forecast: 40 / 46 °F
Wind: 28 mph from Southwest

Location: Amsterdam Schiphol Airport

Current Time: Feb 8, 2016 at 1:36:04 PM

Latest Report: Feb 8, 2016 at 12:55 PM


Visibility: N/A

Pressure: 29.09 "Hg

Humidity: 71%

Dew point: 39 °F

Location of HaarlemLocation

Historic Weather in Haarlem — Graph

°F

Haarlem Temperature Yesterday

Maximum temperature yesterday: 52 °F (at 3:55 AM)
Minimum temperature yesterday: 43 °F (at 7:25 PM)
Average temperature yesterday: 47 °F

High & Low Weather Summary for the Past Weeks

 TemperatureHumidityPressure
High55 °F (Jan 25, 12:55 PM)100% (Jan 24, 12:25 PM)30.33 "Hg (Jan 24, 12:25 PM)
Low37 °F (Feb 4, 12:55 AM)57% (Jan 30, 8:55 PM)29.06 "Hg (Feb 8, 7:25 AM)
Average47 °F82%29.90 "Hg
* Reported Jan 24 12:25 PM — Feb 8 12:25 PM, Haarlem, Weather by CustomWeather, © 2016

Note: Actual official high and low records may vary slightly from our data, if they occured in-between our weather recording intervals... More about our weather records

Advertising

Haarlem Weather History for the Previous 24 Hours

 ConditionsComfort  
Time TempWeatherWind HumidityBarometerVisibility
12:25 PM
Mon, Feb 8
50 °FScattered clouds.32 mph67%29.09 "HgN/A
11:55 AM48 °FBroken clouds.31 mph76%29.09 "HgN/A
11:25 AM48 °FScattered clouds.29 mph71%29.09 "HgN/A
10:55 AM48 °FScattered clouds.29 mph71%29.09 "HgN/A
10:25 AM48 °FScattered clouds.29 mph76%29.09 "HgN/A
9:55 AM46 °FScattered clouds.23 mph82%29.09 "HgN/A
9:25 AM46 °FPassing clouds.23 mph82%29.09 "HgN/A
8:55 AM46 °FPassing clouds.24 mph76%29.09 "HgN/A
8:25 AM46 °FPassing clouds.24 mph76%29.09 "HgN/A
7:55 AM46 °FPassing clouds.23 mph76%29.09 "HgN/A
7:25 AM48 °FPassing clouds.25 mph82%29.06 "HgN/A
6:55 AM48 °FPartly cloudy.24 mph82%29.09 "HgN/A
6:25 AM46 °FRain showers. Passing clouds.28 mph87%29.09 "Hg5 mi
5:55 AM48 °FPassing clouds.23 mph82%29.09 "HgN/A
5:25 AM48 °FPassing clouds.23 mph82%29.12 "HgN/A
4:55 AM46 °FPassing clouds.28 mph87%29.12 "HgN/A
4:25 AM46 °FPassing clouds.37 mph87%29.15 "HgN/A
3:55 AM46 °FRain showers. Partly cloudy.35 mph87%29.15 "Hg3 mi
2:55 AM46 °FPassing clouds.32 mph82%29.18 "HgN/A
2:25 AM46 °FPassing clouds.35 mph82%29.21 "HgN/A
1:55 AM45 °FSprinkles. Mostly cloudy.31 mph87%29.24 "HgN/A
1:25 AM45 °FSprinkles. Passing clouds.31 mph87%29.27 "HgN/A
12:55 AM45 °FSprinkles. Partly cloudy.26 mph81%29.30 "Hg5 mi
12:25 AM45 °FPassing clouds.28 mph81%29.30 "HgN/A
11:55 PM
Sun, Feb 7
45 °FLight rain. Passing clouds.30 mph76%29.36 "HgN/A
11:25 PM46 °FLight rain. Passing clouds.26 mph66%29.36 "HgN/A
10:55 PM46 °FPassing clouds.23 mph66%29.39 "HgN/A
10:25 PM45 °FPassing clouds.23 mph71%29.42 "HgN/A
9:55 PM45 °FPassing clouds.23 mph71%29.42 "HgN/A
9:25 PM45 °FPassing clouds.24 mph76%29.45 "HgN/A
8:55 PM45 °FClear.23 mph76%29.45 "Hg10 mi
8:25 PM45 °FClear.23 mph76%29.47 "Hg10 mi
7:55 PM45 °FPassing clouds.22 mph76%29.47 "HgN/A
7:25 PM43 °FPassing clouds.18 mph87%29.47 "HgN/A
6:55 PM45 °FSprinkles. Passing clouds.25 mph81%29.47 "Hg4 mi
6:25 PM46 °FPassing clouds.24 mph71%29.47 "HgN/A
5:55 PM46 °FPassing clouds.22 mph71%29.50 "HgN/A
5:25 PM46 °FPartly sunny.22 mph76%29.47 "HgN/A
4:55 PM46 °FPartly sunny.25 mph76%29.47 "HgN/A
4:25 PM48 °FPartly sunny.23 mph66%29.47 "HgN/A
3:55 PM48 °FScattered clouds.30 mph66%29.47 "HgN/A
3:25 PM48 °FScattered clouds.26 mph71%29.45 "HgN/A
2:55 PM48 °FScattered clouds.28 mph66%29.45 "HgN/A
2:25 PM48 °FPassing clouds.25 mph71%29.45 "HgN/A
1:55 PM48 °FPassing clouds.29 mph66%29.45 "HgN/A
1:25 PM48 °FPassing clouds.25 mph71%29.45 "HgN/A
Weather by CustomWeather, © 2016

See weather overviewHow to use our weather pages